Regional Weather Roundup
Issued by NWS

Home | Current Version | Previous Version | Graphics & Text | Print | Product List | Glossary On
Versions: 1 2 3 4 5 6 7 8 9 10 11 12 13 14 15 16 17 18 19 20 21 22 23 24 25 26 27 28 29 30 31 32 33 34 35 36 37 38 39 40 41 42 43 44 45 46 47 48 49 50
000
ASUS43 KDTX 231610
RWRMI
MICHIGAN HOURLY REGIONAL WEATHER ROUNDUP
NATIONAL WEATHER SERVICE DETROIT/PONTIAC MI
1100 AM EST SUN NOV 23 2014

NOTE: "FAIR" INDICATES FEW OR NO CLOUDS BELOW 12,000 FEET WITH NO
SIGNIFICANT WEATHER AND/OR OBSTRUCTION TO VISIBILITY.

MIZ047>049-052>055-059>063-066>070-074>076-081>083-231700-
SOUTHEAST LOWER MICHIGAN

CITY           SKY/WX    TMP DP  RH WIND       PRES   REMARKS
ADRIAN         CLOUDY    47  43  86 S7        29.90F
ALMA           CLOUDY    50  46  88 S13       29.82F
ANN ARBOR      CLOUDY    47  43  86 S5        29.91S
BAD AXE        CLOUDY    47  45  95 S12       29.88S
CARO           CLOUDY    50  45  81 S14       29.87S
DETROIT CITY   CLOUDY    48  43  82 S9        29.93F
DETROIT        CLOUDY    46  43  89 S7        29.93F
FLINT          CLOUDY    50  44  80 S12       29.87F
GROSSE ILE     CLOUDY    41  39  93 S6        29.92S FOG
HILLSDALE      CLOUDY    48  46  92 S7        29.86F
HOWELL         CLOUDY    46  44  95 S8        29.87F FOG

CITY           SKY/WX    TMP DP  RH WIND       PRES   REMARKS
JACKSON        CLOUDY    47  43  86 S8        29.86F
LAMBERTVILLE   CLOUDY    50  43  76 S7        29.91F
LANSING        CLOUDY    50  45  83 S12       29.84F
LAPEER         DRIZZLE   47  44  88 S12       29.89F
MASON          CLOUDY    47  45  93 S10       29.86F
MONROE         CLOUDY    46  45  93 S7        29.91F
MT. CLEMENS    DRIZZLE   45  45 100 S7        29.91F FOG
PONTIAC        LGT RAIN  46  43  89 S8        29.88F FOG
PORT HOPE        N/A     48  43  82 VRB6      29.86R
PORT HURON     LGT RAIN  45  43  93 S9        29.94F
TRI CITIES     LGT RAIN  50  46  86 S10       29.83F
TROY           CLOUDY    46  45  93 S6        29.93F FOG
SAGINAW HB     CLOUDY    48  48 100 S13       29.84F FOG
$$
MIZ043>046-050>051-056>058-064>065-071>073-077>080-231700-
SOUTHWEST LOWER MICHIGAN

CITY           SKY/WX    TMP DP  RH WIND       PRES   REMARKS
BATTLE CREEK   CLOUDY    49  44  83 S9        29.83F
BENTON HARBOR  CLOUDY    51  45  79 S14G20    29.78F
BIG RAPIDS     CLOUDY    46  45  98 S3        29.76F
COLDWATER      CLOUDY    50  45  82 S10       29.85F
FREMONT        CLOUDY    46  43  88 S6        29.76S
HOLLAND        CLOUDY    52  45  77 S14       29.78F
GRAND RAPIDS   CLOUDY    50  44  80 S15       29.80F
IONIA          CLOUDY    50  46  83 S10G18    29.80F
KALAMAZOO      LGT RAIN  49  44  83 S6        29.83F
LUDINGTON      CLOUDY    49  44  83 S13G18    29.72F
MARSHALL       CLOUDY    47  43  86 SE7       29.84F
MOUNT PLEASANT CLOUDY    49  46  88 S7        29.79F
MUSKEGON       CLOUDY    53  44  71 S17G24    29.76F
SOUTH HAVEN    LGT RAIN  51  46  84 S10       29.79S
$$
MIZ016>042-231700-
NORTHERN LOWER MICHIGAN

CITY           SKY/WX    TMP DP  RH WIND       PRES   REMARKS
ALPENA         CLOUDY    46  45  96 S14       29.79R FOG
BEAVER ISLAND  CLOUDY    48  47  96 S12G20    29.68R FOG
BELLAIRE       CLOUDY    46  44  91 S8        29.73S
CADILLAC       CLOUDY    44  43  98 S9        29.73F FOG
CHARLEVOIX     CLOUDY    47  47 100 S9        29.73S FOG
FRANKFORT      CLOUDY    47  47  97 S10G21    29.69F FOG
GAYLORD        FOG       43  43 100 S13       29.74R VSB 1/2
GRAYLING       CLOUDY    46  46 100 S8        29.77S FOG
HARBOR SPRINGS CLOUDY    45  45  98 S5        29.72R FOG
HOUGHTON LAKE  PTSUNNY   45  44  97 S8        29.78F FOG
MANISTEE       CLOUDY    48  43  81 S7        29.71F
OSCODA         CLOUDY    47  46  93 S13G18    29.82S
PELLSTON       FOG       44  43  96 SE7       29.72S VSB 1/4
ROGERS CITY    CLOUDY    45  45 100 S14       29.77R FOG
TRAVERSE CITY  CLOUDY    49  44  83 S14G21    29.69F
$$
MIZ007>008-015-231700-
EASTERN UPPER MICHIGAN

CITY           SKY/WX    TMP DP  RH WIND       PRES   REMARKS
KINROSS        CLOUDY    39  39 100 SE9       29.71S VSB<1/4 WCI  33
MACKINAC ISLAN FOG       43  43 100 S8        29.71S VSB 3/4
NEWBERRY       FOG       41  41 100 S12G21    29.66S VSB 1/4
S. S. MARIE    FOG       39  38  96 SE10      29.71S VSB 1   WCI  32
MUNISING         N/A     47  43  86 S14G22    29.58S
$$
MIZ004>006-011>014-085-231700-
CENTRAL UPPER MICHIGAN

CITY           SKY/WX    TMP DP  RH WIND       PRES   REMARKS
MANISTIQUE     FOG       40  40 100 S8        29.65S VSB<1/4 WCI  35
ESCANABA       CLOUDY    43  41  93 S10       29.62F VSB 3/4
MENOMINEE      CLOUDY    45  43  93 S12       29.61F VSB 1
SAWYER-GWINN   FOG       41  41 100 S14       29.56S VSB 1/8
$$
MIZ001>003-009>011-084-231700-
WESTERN UPPER MICHIGAN

CITY           SKY/WX    TMP DP  RH WIND       PRES   REMARKS
IRON MOUNTAIN  FOG       42  42 100 SE7       29.56S VSB<1/4
HOUGHTON       CLOUDY    39  37  92 SE6       29.48S FOG     WCI  35
COPPER HARBOR    N/A     43  39  86 SW6       29.50R
IRONWOOD       CLOUDY    46  46 100 S16G24    29.43S
$$

ABBREVIATIONS USED IN REMARKS
   TC - TEMPERATURE IN CELSIUS
  WCI - WIND CHILL INDEX
   HX - HEAT INDEX
  VSB - VISIBILITY



USA.gov is the U.S. government's official web portal to all federal, state and local government web resources and services.